View from above orbital plane
|
View from above satellite
|
Ground track
|
The orbit data is extracted from the following two-line orbital elements,
1 15369U 84111A 21059.41811040 .00001065 00000-0 52174-4 0 9990
2 15369 82.5261 230.8880 0015981 242.7913 117.1693 15.16983468985372
Epoch (UTC): | 28 February 2021 10:02:04 |
Eccentricity: | 0.0015981 |
inclination: | 82.5261° |
perigee height: | 504 km |
apogee height: | 526 km |
right ascension of ascending node: | 230.8880° |
argument of perigee: | 242.7913° |
revolutions per day: | 15.16983468 |
mean anomaly at epoch: | 117.1693° |
orbit number at epoch: | 98537 |
The dashed part of the orbit path shows where the satellite is in the earth's shadow,
|
|